Location: Unspecified
(0.0000°N, 0.0000°E)
Time: 15:17:06
(UTC+00:00)

ATLAS 5 CENTAUR DEB - Visible Passes

Search period start: 15 December 2025 00:00
Search period end: 25 December 2025 00:00
Orbit: 8814 x 35649 km, 13.2° (Epoch: 13 December)

Date Brightness Start Highest point End Pass type
(mag) Time Alt. Az. Time Alt. Az. Time Alt. Az.
16 Dec ? 18:58:35 10° WSW 19:52:34 80° SSE 07:33:51 10° E visible
17 Dec ? 22:19:35 10° WSW 00:18:56 79° NNW 11:00:50 10° ESE visible
19 Dec ? 01:57:02 10° W 04:36:01 39° WNW 14:23:48 10° ESE visible
20 Dec ? 16:00:38 10° W 16:57:56 69° S 18:46:14 10° E visible
21 Dec ? 19:31:41 10° WSW 20:30:55 85° SSE 08:10:22 10° E visible
22 Dec ? 22:53:27 10° W 01:38:13 72° NW 11:33:28 10° ESE visible
24 Dec ? 02:45:28 10° W 05:04:23 28° WNW 15:00:32 10° E visible
